Home > Weather > Wittenberge > Past weeks

Flag for Germany Weather for the Past 2 Weeks in Wittenberge, Mecklenburg-Western Pomerania, Germany

Now
55 °F

Passing clouds.


Feels Like: 53 °F
Forecast: 36 / 64 °F
Wind: 9 mph from North

Location: Mecklenburg-Vorpommern - Parchim

Current Time: May 4, 2016 at 4:27:03 PM

Latest Report: May 4, 2016 at 3:20 PM


Visibility: N/A

Pressure: 30.39 "Hg

Humidity: 44%

Dew Point: 34 °F

Location of WittenbergeLocation

Historic Weather in Wittenberge — Graph

°F

Wittenberge Temperature Yesterday

Maximum temperature yesterday: 64 °F (at 11:50 AM)
Minimum temperature yesterday: 41 °F (at 6:20 AM)
Average temperature yesterday: 55 °F

High & Low Weather Summary for the Past Weeks

 TemperatureHumidityPressure
High66 °F (May 2, 3:20 PM)100% (Apr 21, 6:20 AM)30.39 "Hg (Apr 21, 6:20 AM)
Low30 °F (Apr 21, 6:50 AM)35% (May 2, 3:20 PM)29.42 "Hg (Apr 26, 6:20 AM)
Average48 °F65%29.98 "Hg
* Reported Apr 19 3:20 PM — May 4 3:20 PM, Wittenberge, Weather by CustomWeather, © 2016

Note: Actual official high and low records may vary slightly from our data, if they occured in-between our weather recording intervals... More about our weather records

Advertising

Wittenberge Weather History for the Previous 24 Hours

Scroll right to see more
 ConditionsComfort  
Time TempWeatherWind HumidityBarometerVisibility
3:20 PM
Wed, May 4
55 °FPassing clouds.9 mph44%30.39 "HgN/A
2:50 PM55 °FScattered clouds.9 mph44%30.39 "HgN/A
2:20 PM55 °FScattered clouds.8 mph47%30.39 "HgN/A
12:50 PM54 °FScattered clouds.8 mph58%30.36 "HgN/A
12:20 PM54 °FScattered clouds.8 mph58%30.36 "HgN/A
11:50 AM50 °FPartly sunny.9 mph62%30.36 "HgN/A
11:20 AM52 °FPartly sunny.8 mph62%30.36 "HgN/A
10:50 AM50 °FBroken clouds.10 mph71%30.36 "HgN/A
9:50 AM46 °FPartly sunny.9 mph82%30.36 "HgN/A
9:20 AM46 °FPartly sunny.7 mph82%30.36 "HgN/A
8:50 AM45 °FPartly sunny.6 mph87%30.36 "HgN/A
8:20 AM45 °FPartly sunny.8 mph87%30.36 "HgN/A
7:50 AM43 °FPassing clouds.7 mph87%30.33 "HgN/A
6:50 AM36 °FScattered clouds.5 mph100%30.33 "HgN/A
6:20 AM36 °FPassing clouds.5 mph93%30.30 "HgN/A
6:50 PM
Tue, May 3
50 °FPartly sunny.5 mph82%30.12 "HgN/A
6:20 PM50 °FBroken clouds.7 mph82%30.15 "HgN/A
5:50 PM50 °FPartly sunny.12 mph76%30.15 "HgN/A
5:20 PM50 °FPartly sunny.7 mph71%30.12 "HgN/A
4:50 PM50 °FPartly sunny.9 mph71%30.12 "HgN/A
4:20 PM52 °FPartly sunny.16 mph72%30.12 "HgN/A
Weather by CustomWeather, © 2016

See weather overviewHow to use our weather pages